Time,TemperatureF,DewpointF,PressureIn,WindDirection,WindDirectionDegrees,WindSpeedMPH,WindSpeedGustMPH,Humidity,HourlyPrecipIn,Conditions,Clouds,dailyrainin,SoftwareType,DateUTC
2013-01-27 00:00:00,11.0,-3.5,30.08,SSE,158,4.0,19.0,51,0.00,,,0.00,WeatherCatV1.13B119,2013-01-27 05:00:00,
2013-01-27 00:05:00,11.0,-3.5,30.08,SSE,158,4.0,19.0,51,0.00,,,0.00,WeatherCatV1.13B119,2013-01-27 05:05:00,
2013-01-27 00:10:00,11.0,-3.5,30.08,SSE,158,4.0,19.0,51,0.00,,,0.00,WeatherCatV1.13B119,2013-01-27 05:10:00,
2013-01-27 00:15:00,11.0,-3.5,30.08,SSE,158,4.0,19.0,51,0.00,,,0.00,WeatherCatV1.13B119,2013-01-27 05:15:00,
2013-01-27 00:20:00,11.6,-4.3,30.08,South,180,4.0,17.0,48,0.00,,,0.00,WeatherCatV1.13B119,2013-01-27 05:20:00,
2013-01-27 00:25:00,11.6,-4.3,30.08,South,180,4.0,17.0,48,0.00,,,0.00,WeatherCatV1.13B119,2013-01-27 05:25:00,
2013-01-27 00:30:00,11.6,-4.3,30.08,South,180,4.0,17.0,48,0.00,,,0.00,WeatherCatV1.13B119,2013-01-27 05:30:00,
2013-01-27 00:35:00,11.7,-4.2,30.08,SE,135,3.0,14.0,48,0.00,,,0.00,WeatherCatV1.13B119,2013-01-27 05:35:00,
2013-01-27 00:40:00,11.7,-4.2,30.08,SE,135,3.0,14.0,48,0.00,,,0.00,WeatherCatV1.13B119,2013-01-27 05:40:00,
2013-01-27 00:45:00,11.7,-4.2,30.08,SE,135,3.0,14.0,48,0.00,,,0.00,WeatherCatV1.13B119,2013-01-27 05:45:00,
2013-01-27 00:50:00,11.4,-4.4,30.08,South,180,3.0,13.0,48,0.00,,,0.00,WeatherCatV1.13B119,2013-01-27 05:50:00,
2013-01-27 00:55:00,11.4,-4.4,30.08,South,180,3.0,13.0,48,0.00,,,0.00,WeatherCatV1.13B119,2013-01-27 05:55:00,
2013-01-27 01:00:00,10.9,-6.2,30.10,SE,135,3.0,17.0,45,0.00,,,0.00,WeatherCatV1.13B119,2013-01-27 06:00:00,
2013-01-27 01:05:00,10.9,-6.2,30.10,SE,135,3.0,17.0,45,0.00,,,0.00,WeatherCatV1.13B119,2013-01-27 06:05:00,
2013-01-27 01:10:00,10.9,-6.2,30.10,SE,135,3.0,17.0,45,0.00,,,0.00,WeatherCatV1.13B119,2013-01-27 06:10:00,
2013-01-27 01:15:00,12.1,-6.5,30.08,SSE,158,4.0,15.0,42,0.00,,,0.00,WeatherCatV1.13B119,2013-01-27 06:15:00,
2013-01-27 01:20:00,12.1,-6.5,30.08,SSE,158,4.0,15.0,42,0.00,,,0.00,WeatherCatV1.13B119,2013-01-27 06:20:00,
2013-01-27 01:25:00,12.1,-6.5,30.08,SSE,158,4.0,15.0,42,0.00,,,0.00,WeatherCatV1.13B119,2013-01-27 06:25:00,
2013-01-27 01:30:00,12.1,-6.1,30.10,West,270,3.0,13.0,43,0.00,,,0.00,WeatherCatV1.13B119,2013-01-27 06:30:00,
2013-01-27 01:35:00,12.1,-6.1,30.10,West,270,3.0,13.0,43,0.00,,,0.00,WeatherCatV1.13B119,2013-01-27 06:35:00,
2013-01-27 01:40:00,12.1,-6.1,30.10,West,270,3.0,13.0,43,0.00,,,0.00,WeatherCatV1.13B119,2013-01-27 06:40:00,
2013-01-27 01:45:00,12.2,-7.0,30.09,SSE,158,2.0,9.0,41,0.00,,,0.00,WeatherCatV1.13B119,2013-01-27 06:45:00,
2013-01-27 01:50:00,12.2,-7.0,30.09,SSE,158,2.0,9.0,41,0.00,,,0.00,WeatherCatV1.13B119,2013-01-27 06:50:00,
2013-01-27 01:55:00,12.2,-7.0,30.09,SSE,158,2.0,9.0,41,0.00,,,0.00,WeatherCatV1.13B119,2013-01-27 06:55:00,
2013-01-27 02:00:00,12.2,-7.0,30.09,SSE,158,2.0,9.0,41,0.00,,,0.00,WeatherCatV1.13B119,2013-01-27 07:00:00,
2013-01-27 02:05:00,13.8,-6.5,30.08,SSE,158,5.0,14.0,39,0.00,,,0.00,WeatherCatV1.13B119,2013-01-27 07:05:00,
2013-01-27 02:10:00,13.8,-6.5,30.08,SSE,158,5.0,14.0,39,0.00,,,0.00,WeatherCatV1.13B119,2013-01-27 07:10:00,
2013-01-27 02:15:00,13.8,-6.5,30.08,SSE,158,5.0,14.0,39,0.00,,,0.00,WeatherCatV1.13B119,2013-01-27 07:15:00,
2013-01-27 02:20:00,13.3,-6.4,30.10,SSE,158,5.0,16.0,40,0.00,,,0.00,WeatherCatV1.13B119,2013-01-27 07:20:00,
2013-01-27 02:25:00,13.3,-6.4,30.10,SSE,158,5.0,16.0,40,0.00,,,0.00,WeatherCatV1.13B119,2013-01-27 07:25:00,
2013-01-27 02:30:00,13.3,-6.4,30.10,SSE,158,5.0,16.0,40,0.00,,,0.00,WeatherCatV1.13B119,2013-01-27 07:30:00,
2013-01-27 02:35:00,13.0,-6.2,30.10,SSE,158,5.0,13.0,41,0.00,,,0.00,WeatherCatV1.13B119,2013-01-27 07:35:00,
2013-01-27 02:40:00,13.0,-6.2,30.10,SSE,158,5.0,13.0,41,0.00,,,0.00,WeatherCatV1.13B119,2013-01-27 07:40:00,
2013-01-27 02:45:00,13.5,-6.8,30.11,SE,135,5.0,25.0,39,0.00,,,0.00,WeatherCatV1.13B119,2013-01-27 07:45:00,
2013-01-27 02:50:00,13.5,-6.8,30.11,SE,135,5.0,25.0,39,0.00,,,0.00,WeatherCatV1.13B119,2013-01-27 07:50:00,
2013-01-27 02:55:00,13.5,-6.8,30.11,SE,135,5.0,25.0,39,0.00,,,0.00,WeatherCatV1.13B119,2013-01-27 07:55:00,
2013-01-27 03:00:00,14.0,-6.9,30.11,SE,135,3.0,10.0,38,0.00,,,0.00,WeatherCatV1.13B119,2013-01-27 08:00:00,
2013-01-27 03:05:00,14.0,-6.9,30.11,SE,135,3.0,10.0,38,0.00,,,0.00,WeatherCatV1.13B119,2013-01-27 08:05:00,
2013-01-27 03:10:00,14.0,-6.9,30.11,SE,135,3.0,10.0,38,0.00,,,0.00,WeatherCatV1.13B119,2013-01-27 08:10:00,
2013-01-27 03:15:00,14.6,-6.9,30.12,SE,135,4.0,20.0,37,0.00,,,0.00,WeatherCatV1.13B119,2013-01-27 08:15:00,
2013-01-27 03:20:00,14.6,-6.9,30.12,SE,135,4.0,20.0,37,0.00,,,0.00,WeatherCatV1.13B119,2013-01-27 08:20:00,
2013-01-27 03:25:00,14.6,-6.9,30.12,SE,135,4.0,20.0,37,0.00,,,0.00,WeatherCatV1.13B119,2013-01-27 08:25:00,
2013-01-27 03:30:00,14.6,-6.9,30.12,SE,135,4.0,20.0,37,0.00,,,0.00,WeatherCatV1.13B119,2013-01-27 08:30:00,
2013-01-27 03:35:00,14.6,-6.9,30.12,SSE,158,3.0,13.0,37,0.00,,,0.00,WeatherCatV1.13B119,2013-01-27 08:35:00,
2013-01-27 03:40:00,14.6,-6.9,30.12,SSE,158,3.0,13.0,37,0.00,,,0.00,WeatherCatV1.13B119,2013-01-27 08:40:00,
2013-01-27 03:45:00,14.6,-6.9,30.12,SSE,158,3.0,13.0,37,0.00,,,0.00,WeatherCatV1.13B119,2013-01-27 08:45:00,
2013-01-27 03:50:00,14.3,-6.6,30.13,SE,135,2.0,11.0,38,0.00,,,0.00,WeatherCatV1.13B119,2013-01-27 08:50:00,
2013-01-27 03:55:00,14.3,-6.6,30.13,SE,135,2.0,11.0,38,0.00,,,0.00,WeatherCatV1.13B119,2013-01-27 08:55:00,
2013-01-27 04:00:00,14.3,-6.6,30.13,SE,135,2.0,11.0,38,0.00,,,0.00,WeatherCatV1.13B119,2013-01-27 09:00:00,
2013-01-27 04:05:00,14.0,-6.9,30.14,SE,135,2.0,11.0,38,0.00,,,0.00,WeatherCatV1.13B119,2013-01-27 09:05:00,
2013-01-27 04:10:00,14.0,-6.9,30.14,SE,135,2.0,11.0,38,0.00,,,0.00,WeatherCatV1.13B119,2013-01-27 09:10:00,
2013-01-27 04:15:00,14.0,-6.9,30.14,SE,135,2.0,11.0,38,0.00,,,0.00,WeatherCatV1.13B119,2013-01-27 09:15:00,
2013-01-27 04:20:00,12.9,-5.8,30.14,SE,135,2.0,10.0,42,0.00,,,0.00,WeatherCatV1.13B119,2013-01-27 09:20:00,
2013-01-27 04:25:00,12.9,-5.8,30.14,SE,135,2.0,10.0,42,0.00,,,0.00,WeatherCatV1.13B119,2013-01-27 09:25:00,
2013-01-27 04:30:00,12.9,-5.8,30.14,SE,135,2.0,10.0,42,0.00,,,0.00,WeatherCatV1.13B119,2013-01-27 09:30:00,
2013-01-27 04:35:00,13.7,-6.1,30.14,SSE,158,2.0,11.0,40,0.00,,,0.00,WeatherCatV1.13B119,2013-01-27 09:35:00,
2013-01-27 04:40:00,13.7,-6.1,30.14,SSE,158,2.0,11.0,40,0.00,,,0.00,WeatherCatV1.13B119,2013-01-27 09:40:00,
2013-01-27 04:45:00,12.9,-7.3,30.16,North,0,1.0,11.0,39,0.00,,,0.00,WeatherCatV1.13B119,2013-01-27 09:45:00,
2013-01-27 04:50:00,12.9,-7.3,30.16,North,0,1.0,11.0,39,0.00,,,0.00,WeatherCatV1.13B119,2013-01-27 09:50:00,
2013-01-27 04:55:00,12.9,-7.3,30.16,North,0,1.0,11.0,39,0.00,,,0.00,WeatherCatV1.13B119,2013-01-27 09:55:00,
2013-01-27 05:00:00,11.5,-6.1,30.18,West,270,0.0,3.0,44,0.00,,,0.00,WeatherCatV1.13B119,2013-01-27 10:00:00,
2013-01-27 05:05:00,11.5,-6.1,30.18,West,270,0.0,3.0,44,0.00,,,0.00,WeatherCatV1.13B119,2013-01-27 10:05:00,
2013-01-27 05:10:00,11.5,-6.1,30.18,West,270,0.0,3.0,44,0.00,,,0.00,WeatherCatV1.13B119,2013-01-27 10:10:00,
2013-01-27 05:15:00,11.5,-6.1,30.18,West,270,0.0,3.0,44,0.00,,,0.00,WeatherCatV1.13B119,2013-01-27 10:15:00,
2013-01-27 05:20:00,9.8,-5.5,30.18,East,90,1.0,4.0,49,0.00,,,0.00,WeatherCatV1.13B119,2013-01-27 10:20:00,
2013-01-27 05:25:00,9.8,-5.5,30.18,East,90,1.0,4.0,49,0.00,,,0.00,WeatherCatV1.13B119,2013-01-27 10:25:00,
2013-01-27 05:30:00,9.8,-5.5,30.18,East,90,1.0,4.0,49,0.00,,,0.00,WeatherCatV1.13B119,2013-01-27 10:30:00,
2013-01-27 05:35:00,9.8,-6.8,30.18,NNE,22,1.0,4.0,46,0.00,,,0.00,WeatherCatV1.13B119,2013-01-27 10:35:00,
2013-01-27 05:40:00,9.8,-6.8,30.18,NNE,22,1.0,4.0,46,0.00,,,0.00,WeatherCatV1.13B119,2013-01-27 10:40:00,
2013-01-27 05:45:00,9.8,-6.8,30.18,NNE,22,1.0,4.0,46,0.00,,,0.00,WeatherCatV1.13B119,2013-01-27 10:45:00,
2013-01-27 05:50:00,9.6,-5.3,30.19,SE,135,1.0,4.0,50,0.00,,,0.00,WeatherCatV1.13B119,2013-01-27 10:50:00,
2013-01-27 05:55:00,9.6,-5.3,30.19,SE,135,1.0,4.0,50,0.00,,,0.00,WeatherCatV1.13B119,2013-01-27 10:55:00,
2013-01-27 06:00:00,9.6,-5.3,30.19,SE,135,1.0,4.0,50,0.00,,,0.00,WeatherCatV1.13B119,2013-01-27 11:00:00,
2013-01-27 06:05:00,9.6,-5.7,30.19,ENE,68,1.0,3.0,49,0.00,,,0.00,WeatherCatV1.13B119,2013-01-27 11:05:00,
2013-01-27 06:10:00,9.6,-5.7,30.19,ENE,68,1.0,3.0,49,0.00,,,0.00,WeatherCatV1.13B119,2013-01-27 11:10:00,
2013-01-27 06:15:00,9.6,-5.7,30.19,ENE,68,1.0,3.0,49,0.00,,,0.00,WeatherCatV1.13B119,2013-01-27 11:15:00,
2013-01-27 06:20:00,8.9,-6.7,30.19,East,90,0.0,2.0,48,0.00,,,0.00,WeatherCatV1.13B119,2013-01-27 11:20:00,
2013-01-27 06:25:00,8.9,-6.7,30.19,East,90,0.0,2.0,48,0.00,,,0.00,WeatherCatV1.13B119,2013-01-27 11:25:00,
2013-01-27 06:30:00,8.8,-6.0,30.20,East,90,0.0,2.0,50,0.00,,,0.00,WeatherCatV1.13B119,2013-01-27 11:30:00,
2013-01-27 06:35:00,8.8,-6.0,30.20,East,90,0.0,2.0,50,0.00,,,0.00,WeatherCatV1.13B119,2013-01-27 11:35:00,
2013-01-27 06:40:00,8.8,-6.0,30.20,East,90,0.0,2.0,50,0.00,,,0.00,WeatherCatV1.13B119,2013-01-27 11:40:00,
2013-01-27 06:45:00,8.5,-5.9,30.20,NE,45,1.0,4.0,51,0.00,,,0.00,WeatherCatV1.13B119,2013-01-27 11:45:00,
2013-01-27 06:50:00,8.5,-5.9,30.20,NE,45,1.0,4.0,51,0.00,,,0.00,WeatherCatV1.13B119,2013-01-27 11:50:00,
2013-01-27 06:55:00,8.5,-5.9,30.20,NE,45,1.0,4.0,51,0.00,,,0.00,WeatherCatV1.13B119,2013-01-27 11:55:00,
2013-01-27 07:00:00,8.5,-5.9,30.20,NE,45,1.0,4.0,51,0.00,,,0.00,WeatherCatV1.13B119,2013-01-27 12:00:00,
2013-01-27 07:05:00,8.6,-6.6,30.21,NNE,22,1.0,6.0,49,0.00,,,0.00,WeatherCatV1.13B119,2013-01-27 12:05:00,
2013-01-27 07:10:00,8.6,-6.6,30.21,NNE,22,1.0,6.0,49,0.00,,,0.00,WeatherCatV1.13B119,2013-01-27 12:10:00,
2013-01-27 07:15:00,8.6,-6.6,30.21,NNE,22,1.0,6.0,49,0.00,,,0.00,WeatherCatV1.13B119,2013-01-27 12:15:00,
2013-01-27 07:20:00,9.0,-6.2,30.22,NE,45,0.0,3.0,49,0.00,,,0.00,WeatherCatV1.13B119,2013-01-27 12:20:00,
2013-01-27 07:25:00,9.0,-6.2,30.22,NE,45,0.0,3.0,49,0.00,,,0.00,WeatherCatV1.13B119,2013-01-27 12:25:00,
2013-01-27 07:30:00,9.0,-6.2,30.22,NE,45,0.0,3.0,49,0.00,,,0.00,WeatherCatV1.13B119,2013-01-27 12:30:00,
2013-01-27 07:35:00,9.9,-6.7,30.23,NE,45,1.0,4.0,46,0.00,,,0.00,WeatherCatV1.13B119,2013-01-27 12:35:00,
2013-01-27 07:40:00,9.9,-6.7,30.23,NE,45,1.0,4.0,46,0.00,,,0.00,WeatherCatV1.13B119,2013-01-27 12:40:00,
2013-01-27 07:45:00,9.9,-6.7,30.23,NE,45,1.0,4.0,46,0.00,,,0.00,WeatherCatV1.13B119,2013-01-27 12:45:00,
2013-01-27 07:55:00,9.7,-6.4,30.23,East,99,1.0,5.0,47,0.00,,,0.00,WeatherCatV1.13B119,2013-01-27 12:55:00,
2013-01-27 07:56:00,10.1,-5.6,30.25,South,186,0.0,4.0,48,0.00,,,0.00,WeatherCatV1.13B119,2013-01-27 12:56:00,
2013-01-27 07:58:00,10.4,-5.4,30.25,East,83,0.0,4.0,48,0.00,,,0.00,WeatherCatV1.13B119,2013-01-27 12:58:00,
2013-01-27 08:03:00,10.9,-4.5,30.26,ESE,117,4.0,5.0,49,0.00,,,0.00,WeatherCatV1.13B119,2013-01-27 13:03:00,
2013-01-27 08:08:00,11.1,-4.3,30.26,South,191,6.0,6.0,49,0.00,,,0.00,WeatherCatV1.13B119,2013-01-27 13:08:00,
2013-01-27 08:12:00,11.8,-3.6,30.26,SSE,148,2.0,2.0,49,0.00,,,0.00,WeatherCatV1.13B119,2013-01-27 13:12:00,
2013-01-27 08:17:00,11.5,-3.9,30.27,NE,47,0.0,2.0,49,0.00,,,0.00,WeatherCatV1.13B119,2013-01-27 13:17:00,
2013-01-27 08:22:00,11.5,-3.5,30.26,North,355,3.0,3.0,50,0.00,,,0.00,WeatherCatV1.13B119,2013-01-27 13:22:00,
2013-01-27 08:27:00,11.6,-3.4,30.26,ESE,119,7.0,7.0,50,0.00,,,0.00,WeatherCatV1.13B119,2013-01-27 13:27:00,
2013-01-27 08:32:00,12.1,-3.4,30.27,ESE,120,0.0,0.0,49,0.00,,,0.00,WeatherCatV1.13B119,2013-01-27 13:32:00,
2013-01-27 08:37:00,12.3,-2.8,30.27,South,171,0.0,1.0,50,0.00,,,0.00,WeatherCatV1.13B119,2013-01-27 13:37:00,
2013-01-27 08:42:00,12.6,-2.1,30.27,SSW,205,0.0,2.0,51,0.00,,,0.00,WeatherCatV1.13B119,2013-01-27 13:42:00,
2013-01-27 08:47:00,13.2,-2.8,30.28,SW,231,1.0,3.0,48,0.00,,,0.00,WeatherCatV1.13B119,2013-01-27 13:47:00,
2013-01-27 08:52:00,13.9,-1.7,30.28,West,277,1.0,2.0,49,0.00,,,0.00,WeatherCatV1.13B119,2013-01-27 13:52:00,
2013-01-27 08:57:00,14.3,-1.8,30.28,SE,128,0.0,3.0,48,0.00,,,0.00,WeatherCatV1.13B119,2013-01-27 13:57:00,
2013-01-27 09:02:00,14.6,-1.5,30.28,SE,128,0.0,1.0,48,0.00,,,0.00,WeatherCatV1.13B119,2013-01-27 14:02:00,
2013-01-27 09:07:00,15.0,-1.6,30.28,SE,128,0.0,0.0,47,0.00,,,0.00,WeatherCatV1.13B119,2013-01-27 14:07:00,
2013-01-27 09:12:00,15.7,-0.5,30.28,NE,42,0.0,3.0,48,0.00,,,0.00,WeatherCatV1.13B119,2013-01-27 14:12:00,
2013-01-27 09:17:00,16.1,-1.0,30.28,SSW,196,1.0,4.0,46,0.00,,,0.00,WeatherCatV1.13B119,2013-01-27 14:17:00,
2013-01-27 09:22:00,16.5,-0.2,30.28,ESE,119,3.0,5.0,47,0.00,,,0.00,WeatherCatV1.13B119,2013-01-27 14:22:00,
2013-01-27 09:27:00,16.8,-0.4,30.29,ESE,109,2.0,4.0,46,0.00,,,0.00,WeatherCatV1.13B119,2013-01-27 14:27:00,
2013-01-27 09:32:00,17.1,-0.5,30.28,SE,134,0.0,5.0,45,0.00,,,0.00,WeatherCatV1.13B119,2013-01-27 14:32:00,
2013-01-27 09:37:00,17.6,0.4,30.28,SE,145,1.0,4.0,46,0.00,,,0.00,WeatherCatV1.13B119,2013-01-27 14:37:00,
2013-01-27 09:42:00,18.1,-0.1,30.29,North,355,4.0,4.0,44,0.00,,,0.00,WeatherCatV1.13B119,2013-01-27 14:42:00,
2013-01-27 09:47:00,18.4,0.6,30.28,NNW,341,2.0,7.0,45,0.00,,,0.00,WeatherCatV1.13B119,2013-01-27 14:47:00,
2013-01-27 09:52:00,18.9,0.1,30.28,ESE,103,0.0,5.0,43,0.00,,,0.00,WeatherCatV1.13B119,2013-01-27 14:52:00,
2013-01-27 09:57:00,19.5,0.7,30.29,SE,126,4.0,6.0,43,0.00,,,0.00,WeatherCatV1.13B119,2013-01-27 14:57:00,
2013-01-27 10:02:00,19.7,0.9,30.29,SSW,208,0.0,4.0,43,0.00,,,0.00,WeatherCatV1.13B119,2013-01-27 15:02:00,
2013-01-27 10:07:00,19.9,0.0,30.29,WNW,302,0.0,2.0,41,0.00,,,0.00,WeatherCatV1.13B119,2013-01-27 15:07:00,
2013-01-27 10:12:00,20.6,1.2,30.28,South,173,2.0,4.0,42,0.00,,,0.00,WeatherCatV1.13B119,2013-01-27 15:12:00,
2013-01-27 10:17:00,21.2,1.2,30.28,SSE,163,0.0,2.0,41,0.00,,,0.00,WeatherCatV1.13B119,2013-01-27 15:17:00,
2013-01-27 10:22:00,22.0,1.9,30.28,SSW,213,0.0,0.0,41,0.00,,,0.00,WeatherCatV1.13B119,2013-01-27 15:22:00,
2013-01-27 10:27:00,22.6,2.0,30.28,South,180,0.0,4.0,40,0.00,,,0.00,WeatherCatV1.13B119,2013-01-27 15:27:00,
2013-01-27 10:32:00,22.7,1.5,30.29,South,175,0.0,3.0,39,0.00,,,0.00,WeatherCatV1.13B119,2013-01-27 15:32:00,
2013-01-27 10:37:00,22.8,1.6,30.28,SW,231,1.0,4.0,39,0.00,,,0.00,WeatherCatV1.13B119,2013-01-27 15:37:00,
2013-01-27 10:42:00,22.7,1.0,30.29,SSW,194,0.0,7.0,38,0.00,,,0.00,WeatherCatV1.13B119,2013-01-27 15:42:00,
2013-01-27 10:47:00,22.9,1.7,30.29,South,186,2.0,6.0,39,0.00,,,0.00,WeatherCatV1.13B119,2013-01-27 15:47:00,
2013-01-27 10:52:00,22.9,2.2,30.29,South,187,0.0,4.0,40,0.00,,,0.00,WeatherCatV1.13B119,2013-01-27 15:52:00,
2013-01-27 10:57:00,23.0,1.8,30.29,SSE,150,0.0,4.0,39,0.00,,,0.00,WeatherCatV1.13B119,2013-01-27 15:57:00,
2013-01-27 11:02:00,23.6,1.8,30.29,WSW,243,4.0,4.0,38,0.00,,,0.00,WeatherCatV1.13B119,2013-01-27 16:02:00,
2013-01-27 11:07:00,23.9,2.0,30.28,SSW,200,0.0,1.0,38,0.00,,,0.00,WeatherCatV1.13B119,2013-01-27 16:07:00,
2013-01-27 11:12:00,24.3,2.4,30.28,ESE,115,3.0,3.0,38,0.00,,,0.00,WeatherCatV1.13B119,2013-01-27 16:12:00,
2013-01-27 11:17:00,24.5,3.1,30.27,SE,133,0.0,4.0,39,0.00,,,0.00,WeatherCatV1.13B119,2013-01-27 16:17:00,
2013-01-27 11:22:00,24.4,1.9,30.27,West,263,1.0,4.0,37,0.00,,,0.00,WeatherCatV1.13B119,2013-01-27 16:22:00,
2013-01-27 11:27:00,24.7,2.7,30.27,West,274,3.0,5.0,38,0.00,,,0.00,WeatherCatV1.13B119,2013-01-27 16:27:00,
2013-01-27 11:32:00,24.9,1.8,30.27,SSE,163,1.0,1.0,36,0.00,,,0.00,WeatherCatV1.13B119,2013-01-27 16:32:00,
2013-01-27 11:37:00,25.5,2.9,30.27,ESE,103,2.0,3.0,37,0.00,,,0.00,WeatherCatV1.13B119,2013-01-27 16:37:00,
2013-01-27 11:42:00,26.1,5.7,30.27,NW,319,2.0,6.0,41,0.00,,,0.00,WeatherCatV1.13B119,2013-01-27 16:42:00,
2013-01-27 11:47:00,26.0,0.9,30.27,West,265,0.0,5.0,33,0.00,,,0.00,WeatherCatV1.13B119,2013-01-27 16:47:00,
2013-01-27 11:52:00,26.1,1.0,30.27,South,169,4.0,4.0,33,0.00,,,0.00,WeatherCatV1.13B119,2013-01-27 16:52:00,
2013-01-27 11:57:00,26.2,1.7,30.27,WSW,249,1.0,2.0,34,0.00,,,0.00,WeatherCatV1.13B119,2013-01-27 16:57:00,
2013-01-27 12:02:00,26.3,1.8,30.27,SW,222,2.0,5.0,34,0.00,,,0.00,WeatherCatV1.13B119,2013-01-27 17:02:00,
2013-01-27 12:07:00,26.3,1.8,30.27,WSW,250,4.0,4.0,34,0.00,,,0.00,WeatherCatV1.13B119,2013-01-27 17:07:00,
2013-01-27 12:12:00,26.1,1.6,30.27,SW,216,4.0,7.0,34,0.00,,,0.00,WeatherCatV1.13B119,2013-01-27 17:12:00,
2013-01-27 12:17:00,25.7,0.0,30.27,SSW,194,5.0,6.0,32,0.00,,,0.00,WeatherCatV1.13B119,2013-01-27 17:17:00,
2013-01-27 12:22:00,25.7,1.3,30.27,SSW,202,5.0,7.0,34,0.00,,,0.00,WeatherCatV1.13B119,2013-01-27 17:22:00,
2013-01-27 12:27:00,25.4,0.4,30.27,South,187,5.0,14.0,33,0.00,,,0.00,WeatherCatV1.13B119,2013-01-27 17:27:00,
2013-01-27 12:30:00,25.1,-0.6,30.27,SSW,212,5.0,10.0,32,0.00,,,0.00,WeatherCatV1.13B119,2013-01-27 17:30:00,
2013-01-27 12:32:00,24.9,-0.1,30.28,SW,221,1.0,6.0,33,0.00,,,0.00,WeatherCatV1.13B119,2013-01-27 17:32:00,
2013-01-27 12:35:00,25.1,0.1,30.27,SW,225,4.0,14.0,33,0.00,,,0.00,WeatherCatV1.13B119,2013-01-27 17:35:00,
2013-01-27 12:37:00,24.9,-0.1,30.28,SW,229,5.0,7.0,33,0.00,,,0.00,WeatherCatV1.13B119,2013-01-27 17:37:00,
2013-01-27 12:40:00,25.1,0.1,30.27,SW,225,4.0,14.0,33,0.00,,,0.00,WeatherCatV1.13B119,2013-01-27 17:40:00,
2013-01-27 12:42:00,24.9,0.5,30.28,South,181,1.0,7.0,34,0.00,,,0.00,WeatherCatV1.13B119,2013-01-27 17:42:00,
2013-01-27 12:45:00,25.1,0.1,30.27,SW,225,4.0,14.0,33,0.00,,,0.00,WeatherCatV1.13B119,2013-01-27 17:45:00,
2013-01-27 12:47:00,25.1,0.7,30.28,SW,227,0.0,6.0,34,0.00,,,0.00,WeatherCatV1.13B119,2013-01-27 17:47:00,
2013-01-27 12:50:00,24.9,1.2,30.28,SSW,202,3.0,7.0,35,0.00,,,0.00,WeatherCatV1.13B119,2013-01-27 17:50:00,
2013-01-27 12:52:00,25.5,2.3,30.28,SE,139,4.0,4.0,36,0.00,,,0.00,WeatherCatV1.13B119,2013-01-27 17:52:00,
2013-01-27 12:55:00,24.9,1.2,30.28,SSW,202,3.0,7.0,35,0.00,,,0.00,WeatherCatV1.13B119,2013-01-27 17:55:00,
2013-01-27 12:57:00,26.1,1.6,30.28,SSW,208,2.0,6.0,34,0.00,,,0.00,WeatherCatV1.13B119,2013-01-27 17:57:00,
2013-01-27 13:00:00,24.9,1.2,30.28,SSW,202,3.0,7.0,35,0.00,,,0.00,WeatherCatV1.13B119,2013-01-27 18:00:00,
2013-01-27 13:02:00,26.1,1.6,30.27,WSW,244,1.0,4.0,34,0.00,,,0.00,WeatherCatV1.13B119,2013-01-27 18:02:00,
2013-01-27 13:05:00,26.1,2.2,30.28,SSW,202,2.0,6.0,35,0.00,,,0.00,WeatherCatV1.13B119,2013-01-27 18:05:00,
2013-01-27 13:07:00,26.0,0.9,30.27,SW,218,2.0,3.0,33,0.00,,,0.00,WeatherCatV1.13B119,2013-01-27 18:07:00,
2013-01-27 13:10:00,26.1,2.2,30.28,SSW,202,2.0,6.0,35,0.00,,,0.00,WeatherCatV1.13B119,2013-01-27 18:10:00,
2013-01-27 13:12:00,25.8,0.7,30.27,SSE,167,1.0,4.0,33,0.00,,,0.00,WeatherCatV1.13B119,2013-01-27 18:12:00,
2013-01-27 13:15:00,26.1,2.2,30.28,SSW,202,2.0,6.0,35,0.00,,,0.00,WeatherCatV1.13B119,2013-01-27 18:15:00,
2013-01-27 13:17:00,25.9,2.1,30.27,SW,226,1.0,3.0,35,0.00,,,0.00,WeatherCatV1.13B119,2013-01-27 18:17:00,
2013-01-27 13:20:00,25.7,0.6,30.27,SSW,202,2.0,6.0,33,0.00,,,0.00,WeatherCatV1.13B119,2013-01-27 18:20:00,
2013-01-27 13:22:00,26.2,2.3,30.27,SSW,204,3.0,4.0,35,0.00,,,0.00,WeatherCatV1.13B119,2013-01-27 18:22:00,
2013-01-27 13:25:00,25.7,0.6,30.27,SSW,202,2.0,6.0,33,0.00,,,0.00,WeatherCatV1.13B119,2013-01-27 18:25:00,
2013-01-27 13:30:00,25.7,0.6,30.27,SSW,202,2.0,6.0,33,0.00,,,0.00,WeatherCatV1.13B119,2013-01-27 18:30:00,
2013-01-27 13:35:00,25.6,0.5,30.27,SW,225,4.0,14.0,33,0.00,,,0.00,WeatherCatV1.13B119,2013-01-27 18:35:00,
2013-01-27 13:40:00,25.6,0.5,30.27,SW,225,4.0,14.0,33,0.00,,,0.00,WeatherCatV1.13B119,2013-01-27 18:40:00,
2013-01-27 13:45:00,25.6,0.5,30.27,SW,225,4.0,14.0,33,0.00,,,0.00,WeatherCatV1.13B119,2013-01-27 18:45:00,
2013-01-27 13:50:00,26.0,2.1,30.27,SSW,202,4.0,12.0,35,0.00,,,0.00,WeatherCatV1.13B119,2013-01-27 18:50:00,
2013-01-27 13:55:00,26.0,2.1,30.27,SSW,202,4.0,12.0,35,0.00,,,0.00,WeatherCatV1.13B119,2013-01-27 18:55:00,
2013-01-27 14:00:00,26.0,2.1,30.27,SSW,202,4.0,12.0,35,0.00,,,0.00,WeatherCatV1.13B119,2013-01-27 19:00:00,
2013-01-27 14:05:00,24.9,1.2,30.27,SSW,202,5.0,13.0,35,0.00,,,0.00,WeatherCatV1.13B119,2013-01-27 19:05:00,
2013-01-27 14:10:00,24.9,1.2,30.27,SSW,202,5.0,13.0,35,0.00,,,0.00,WeatherCatV1.13B119,2013-01-27 19:10:00,
2013-01-27 14:15:00,24.9,1.2,30.27,SSW,202,5.0,13.0,35,0.00,,,0.00,WeatherCatV1.13B119,2013-01-27 19:15:00,
2013-01-27 14:20:00,25.7,2.5,30.28,South,180,4.0,16.0,36,0.00,,,0.00,WeatherCatV1.13B119,2013-01-27 19:20:00,
2013-01-27 14:25:00,25.7,2.5,30.28,South,180,4.0,16.0,36,0.00,,,0.00,WeatherCatV1.13B119,2013-01-27 19:25:00,
2013-01-27 14:30:00,25.7,2.5,30.28,South,180,4.0,16.0,36,0.00,,,0.00,WeatherCatV1.13B119,2013-01-27 19:30:00,
2013-01-27 14:35:00,26.4,3.1,30.28,South,180,2.0,9.0,36,0.00,,,0.00,WeatherCatV1.13B119,2013-01-27 19:35:00,
2013-01-27 14:40:00,26.4,3.1,30.28,South,180,2.0,9.0,36,0.00,,,0.00,WeatherCatV1.13B119,2013-01-27 19:40:00,
2013-01-27 14:45:00,26.4,3.1,30.28,South,180,2.0,9.0,36,0.00,,,0.00,WeatherCatV1.13B119,2013-01-27 19:45:00,
2013-01-27 14:50:00,25.9,2.7,30.28,SW,225,2.0,9.0,36,0.00,,,0.00,WeatherCatV1.13B119,2013-01-27 19:50:00,
2013-01-27 14:55:00,25.9,2.7,30.28,SW,225,2.0,9.0,36,0.00,,,0.00,WeatherCatV1.13B119,2013-01-27 19:55:00,
2013-01-27 15:00:00,25.9,2.7,30.28,SW,225,2.0,9.0,36,0.00,,,0.00,WeatherCatV1.13B119,2013-01-27 20:00:00,
2013-01-27 15:05:00,25.9,2.7,30.28,SW,225,2.0,9.0,36,0.00,,,0.00,WeatherCatV1.13B119,2013-01-27 20:05:00,
2013-01-27 15:10:00,25.9,2.7,30.28,SW,225,2.0,9.0,36,0.00,,,0.00,WeatherCatV1.13B119,2013-01-27 20:10:00,
2013-01-27 15:15:00,25.9,2.7,30.28,SW,225,2.0,9.0,36,0.00,,,0.00,WeatherCatV1.13B119,2013-01-27 20:15:00,
2013-01-27 15:20:00,25.2,1.4,30.29,South,180,2.0,10.0,35,0.00,,,0.00,WeatherCatV1.13B119,2013-01-27 20:20:00,
2013-01-27 15:25:00,25.2,1.4,30.29,South,180,2.0,10.0,35,0.00,,,0.00,WeatherCatV1.13B119,2013-01-27 20:25:00,
2013-01-27 15:30:00,25.2,1.4,30.29,South,180,2.0,10.0,35,0.00,,,0.00,WeatherCatV1.13B119,2013-01-27 20:30:00,
2013-01-27 15:35:00,25.1,1.3,30.29,SSW,202,3.0,10.0,35,0.00,,,0.00,WeatherCatV1.13B119,2013-01-27 20:35:00,
2013-01-27 15:40:00,25.1,1.3,30.29,SSW,202,3.0,10.0,35,0.00,,,0.00,WeatherCatV1.13B119,2013-01-27 20:40:00,
2013-01-27 15:45:00,25.1,1.3,30.29,SSW,202,3.0,10.0,35,0.00,,,0.00,WeatherCatV1.13B119,2013-01-27 20:45:00,
2013-01-27 15:50:00,25.1,1.3,30.29,South,180,1.0,13.0,35,0.00,,,0.00,WeatherCatV1.13B119,2013-01-27 20:50:00,
2013-01-27 15:55:00,25.1,1.3,30.29,South,180,1.0,13.0,35,0.00,,,0.00,WeatherCatV1.13B119,2013-01-27 20:55:00,
2013-01-27 16:00:00,25.1,1.3,30.29,South,180,1.0,13.0,35,0.00,,,0.00,WeatherCatV1.13B119,2013-01-27 21:00:00,
2013-01-27 16:05:00,23.2,-1.6,30.30,SSW,202,1.0,7.0,33,0.00,,,0.00,WeatherCatV1.13B119,2013-01-27 21:05:00,
2013-01-27 16:10:00,23.2,-1.6,30.30,SSW,202,1.0,7.0,33,0.00,,,0.00,WeatherCatV1.13B119,2013-01-27 21:10:00,
2013-01-27 16:15:00,23.2,-1.6,30.30,SSW,202,1.0,7.0,33,0.00,,,0.00,WeatherCatV1.13B119,2013-01-27 21:15:00,
2013-01-27 16:20:00,22.1,0.4,30.31,SSW,202,0.0,6.0,38,0.00,,,0.00,WeatherCatV1.13B119,2013-01-27 21:20:00,
2013-01-27 16:25:00,22.1,0.4,30.31,SSW,202,0.0,6.0,38,0.00,,,0.00,WeatherCatV1.13B119,2013-01-27 21:25:00,
2013-01-27 16:30:00,22.1,0.4,30.31,SSW,202,0.0,6.0,38,0.00,,,0.00,WeatherCatV1.13B119,2013-01-27 21:30:00,
2013-01-27 16:35:00,21.2,-2.1,30.32,SSE,158,0.0,2.0,35,0.00,,,0.00,WeatherCatV1.13B119,2013-01-27 21:35:00,
2013-01-27 16:40:00,21.2,-2.1,30.32,SSE,158,0.0,2.0,35,0.00,,,0.00,WeatherCatV1.13B119,2013-01-27 21:40:00,
2013-01-27 16:45:00,21.2,-2.1,30.32,SSE,158,0.0,2.0,35,0.00,,,0.00,WeatherCatV1.13B119,2013-01-27 21:45:00,
2013-01-27 16:50:00,20.7,-0.9,30.32,ESE,112,0.0,2.0,38,0.00,,,0.00,WeatherCatV1.13B119,2013-01-27 21:50:00,
2013-01-27 16:55:00,20.7,-0.9,30.32,ESE,112,0.0,2.0,38,0.00,,,0.00,WeatherCatV1.13B119,2013-01-27 21:55:00,
2013-01-27 17:00:00,20.7,-0.9,30.32,ESE,112,0.0,2.0,38,0.00,,,0.00,WeatherCatV1.13B119,2013-01-27 22:00:00,
2013-01-27 17:05:00,19.4,-0.9,30.33,East,90,0.0,1.0,40,0.00,,,0.00,WeatherCatV1.13B119,2013-01-27 22:05:00,
2013-01-27 17:10:00,19.4,-0.9,30.33,East,90,0.0,1.0,40,0.00,,,0.00,WeatherCatV1.13B119,2013-01-27 22:10:00,
2013-01-27 17:15:00,19.4,-0.9,30.33,East,90,0.0,1.0,40,0.00,,,0.00,WeatherCatV1.13B119,2013-01-27 22:15:00,
2013-01-27 17:20:00,18.7,0.9,30.34,ENE,68,0.0,1.0,45,0.00,,,0.00,WeatherCatV1.13B119,2013-01-27 22:20:00,
2013-01-27 17:25:00,18.7,0.9,30.34,ENE,68,0.0,1.0,45,0.00,,,0.00,WeatherCatV1.13B119,2013-01-27 22:25:00,
2013-01-27 17:30:00,18.7,0.9,30.34,ENE,68,0.0,1.0,45,0.00,,,0.00,WeatherCatV1.13B119,2013-01-27 22:30:00,
2013-01-27 17:35:00,17.5,0.3,30.35,ENE,68,0.0,1.0,46,0.00,,,0.00,WeatherCatV1.13B119,2013-01-27 22:35:00,
2013-01-27 17:40:00,17.5,0.3,30.35,ENE,68,0.0,1.0,46,0.00,,,0.00,WeatherCatV1.13B119,2013-01-27 22:40:00,
2013-01-27 17:45:00,17.5,0.3,30.35,ENE,68,0.0,1.0,46,0.00,,,0.00,WeatherCatV1.13B119,2013-01-27 22:45:00,
2013-01-27 17:50:00,16.5,-0.6,30.36,ENE,68,0.0,2.0,46,0.00,,,0.00,WeatherCatV1.13B119,2013-01-27 22:50:00,
2013-01-27 17:55:00,16.5,-0.6,30.36,ENE,68,0.0,2.0,46,0.00,,,0.00,WeatherCatV1.13B119,2013-01-27 22:55:00,
2013-01-27 18:00:00,16.5,-0.6,30.36,ENE,68,0.0,2.0,46,0.00,,,0.00,WeatherCatV1.13B119,2013-01-27 23:00:00,
2013-01-27 18:05:00,15.5,0.6,30.38,ENE,68,0.0,1.0,51,0.00,,,0.00,WeatherCatV1.13B119,2013-01-27 23:05:00,
2013-01-27 18:10:00,15.5,0.6,30.38,ENE,68,0.0,1.0,51,0.00,,,0.00,WeatherCatV1.13B119,2013-01-27 23:10:00,
2013-01-27 18:15:00,15.5,0.6,30.38,ENE,68,0.0,1.0,51,0.00,,,0.00,WeatherCatV1.13B119,2013-01-27 23:15:00,
2013-01-27 18:20:00,14.9,0.5,30.39,ENE,68,0.0,0.0,52,0.00,,,0.00,WeatherCatV1.13B119,2013-01-27 23:20:00,
2013-01-27 18:25:00,14.9,0.5,30.39,ENE,68,0.0,0.0,52,0.00,,,0.00,WeatherCatV1.13B119,2013-01-27 23:25:00,
2013-01-27 18:30:00,14.9,0.5,30.39,ENE,68,0.0,0.0,52,0.00,,,0.00,WeatherCatV1.13B119,2013-01-27 23:30:00,
2013-01-27 18:35:00,13.3,0.6,30.40,ENE,68,0.0,0.0,56,0.00,,,0.00,WeatherCatV1.13B119,2013-01-27 23:35:00,
2013-01-27 18:40:00,13.3,0.6,30.40,ENE,68,0.0,0.0,56,0.00,,,0.00,WeatherCatV1.13B119,2013-01-27 23:40:00,
2013-01-27 18:45:00,13.3,0.6,30.40,ENE,68,0.0,0.0,56,0.00,,,0.00,WeatherCatV1.13B119,2013-01-27 23:45:00,
2013-01-27 18:50:00,11.9,0.4,30.41,ENE,68,0.0,1.0,59,0.00,,,0.00,WeatherCatV1.13B119,2013-01-27 23:50:00,
2013-01-27 18:55:00,11.9,0.4,30.41,ENE,68,0.0,1.0,59,0.00,,,0.00,WeatherCatV1.13B119,2013-01-27 23:55:00,
2013-01-27 19:00:00,11.9,0.4,30.41,ENE,68,0.0,1.0,59,0.00,,,0.00,WeatherCatV1.13B119,2013-01-28 00:00:00,
2013-01-27 19:05:00,11.3,0.2,30.40,ENE,68,0.0,1.0,60,0.00,,,0.00,WeatherCatV1.13B119,2013-01-28 00:05:00,
2013-01-27 19:10:00,11.3,0.2,30.40,ENE,68,0.0,1.0,60,0.00,,,0.00,WeatherCatV1.13B119,2013-01-28 00:10:00,
2013-01-27 19:15:00,11.3,0.2,30.40,ENE,68,0.0,1.0,60,0.00,,,0.00,WeatherCatV1.13B119,2013-01-28 00:15:00,
2013-01-27 19:20:00,10.0,-0.4,30.41,ENE,68,0.0,1.0,62,0.00,,,0.00,WeatherCatV1.13B119,2013-01-28 00:20:00,
2013-01-27 19:25:00,10.0,-0.4,30.41,ENE,68,0.0,1.0,62,0.00,,,0.00,WeatherCatV1.13B119,2013-01-28 00:25:00,
2013-01-27 19:30:00,10.0,-0.4,30.41,ENE,68,0.0,1.0,62,0.00,,,0.00,WeatherCatV1.13B119,2013-01-28 00:30:00,
2013-01-27 19:35:00,9.1,-0.6,30.42,ENE,68,0.0,2.0,64,0.00,,,0.00,WeatherCatV1.13B119,2013-01-28 00:35:00,
2013-01-27 19:40:00,9.1,-0.6,30.42,ENE,68,0.0,2.0,64,0.00,,,0.00,WeatherCatV1.13B119,2013-01-28 00:40:00,
2013-01-27 19:45:00,9.1,-0.6,30.42,ENE,68,0.0,2.0,64,0.00,,,0.00,WeatherCatV1.13B119,2013-01-28 00:45:00,
2013-01-27 19:50:00,8.6,-1.7,30.41,ENE,68,0.0,2.0,62,0.00,,,0.00,WeatherCatV1.13B119,2013-01-28 00:50:00,
2013-01-27 19:55:00,8.6,-1.7,30.41,ENE,68,0.0,2.0,62,0.00,,,0.00,WeatherCatV1.13B119,2013-01-28 00:55:00,
2013-01-27 20:00:00,8.6,-1.7,30.41,ENE,68,0.0,2.0,62,0.00,,,0.00,WeatherCatV1.13B119,2013-01-28 01:00:00,
2013-01-27 20:05:00,7.8,-1.5,30.41,ENE,68,0.0,1.0,65,0.00,,,0.00,WeatherCatV1.13B119,2013-01-28 01:05:00,
2013-01-27 20:10:00,7.8,-1.5,30.41,ENE,68,0.0,1.0,65,0.00,,,0.00,WeatherCatV1.13B119,2013-01-28 01:10:00,
2013-01-27 20:15:00,7.8,-1.5,30.41,ENE,68,0.0,1.0,65,0.00,,,0.00,WeatherCatV1.13B119,2013-01-28 01:15:00,
2013-01-27 20:20:00,7.4,-1.9,30.40,ENE,68,0.0,1.0,65,0.00,,,0.00,WeatherCatV1.13B119,2013-01-28 01:20:00,
2013-01-27 20:25:00,7.4,-1.9,30.40,ENE,68,0.0,1.0,65,0.00,,,0.00,WeatherCatV1.13B119,2013-01-28 01:25:00,
2013-01-27 20:30:00,7.4,-1.9,30.40,ENE,68,0.0,1.0,65,0.00,,,0.00,WeatherCatV1.13B119,2013-01-28 01:30:00,
2013-01-27 20:35:00,6.7,-2.5,30.40,ENE,68,0.0,1.0,65,0.00,,,0.00,WeatherCatV1.13B119,2013-01-28 01:35:00,
2013-01-27 20:40:00,6.7,-2.5,30.40,ENE,68,0.0,1.0,65,0.00,,,0.00,WeatherCatV1.13B119,2013-01-28 01:40:00,
2013-01-27 20:45:00,6.7,-2.5,30.40,ENE,68,0.0,1.0,65,0.00,,,0.00,WeatherCatV1.13B119,2013-01-28 01:45:00,
2013-01-27 20:50:00,6.2,-2.7,30.40,ENE,68,0.0,0.0,66,0.00,,,0.00,WeatherCatV1.13B119,2013-01-28 01:50:00,
2013-01-27 20:55:00,6.2,-2.7,30.40,ENE,68,0.0,0.0,66,0.00,,,0.00,WeatherCatV1.13B119,2013-01-28 01:55:00,
2013-01-27 21:00:00,6.2,-2.7,30.40,ENE,68,0.0,0.0,66,0.00,,,0.00,WeatherCatV1.13B119,2013-01-28 02:00:00,
2013-01-27 21:05:00,5.7,-2.8,30.41,ENE,68,0.0,0.0,67,0.00,,,0.00,WeatherCatV1.13B119,2013-01-28 02:05:00,
2013-01-27 21:10:00,5.7,-2.8,30.41,ENE,68,0.0,0.0,67,0.00,,,0.00,WeatherCatV1.13B119,2013-01-28 02:10:00,
2013-01-27 21:15:00,5.7,-2.8,30.41,ENE,68,0.0,0.0,67,0.00,,,0.00,WeatherCatV1.13B119,2013-01-28 02:15:00,
2013-01-27 21:20:00,5.2,-2.7,30.41,ENE,68,0.0,1.0,69,0.00,,,0.00,WeatherCatV1.13B119,2013-01-28 02:20:00,
2013-01-27 21:25:00,5.2,-2.7,30.41,ENE,68,0.0,1.0,69,0.00,,,0.00,WeatherCatV1.13B119,2013-01-28 02:25:00,
2013-01-27 21:30:00,5.2,-2.7,30.41,ENE,68,0.0,1.0,69,0.00,,,0.00,WeatherCatV1.13B119,2013-01-28 02:30:00,
2013-01-27 21:35:00,4.6,-3.3,30.40,ENE,68,0.0,0.0,69,0.00,,,0.00,WeatherCatV1.13B119,2013-01-28 02:35:00,
2013-01-27 21:40:00,4.6,-3.3,30.40,ENE,68,0.0,0.0,69,0.00,,,0.00,WeatherCatV1.13B119,2013-01-28 02:40:00,
2013-01-27 21:45:00,4.6,-3.3,30.40,ENE,68,0.0,0.0,69,0.00,,,0.00,WeatherCatV1.13B119,2013-01-28 02:45:00,
2013-01-27 21:50:00,4.7,-3.2,30.40,ENE,68,0.0,2.0,69,0.00,,,0.00,WeatherCatV1.13B119,2013-01-28 02:50:00,
2013-01-27 21:55:00,4.7,-3.2,30.40,ENE,68,0.0,2.0,69,0.00,,,0.00,WeatherCatV1.13B119,2013-01-28 02:55:00,
2013-01-27 22:00:00,4.7,-3.2,30.40,ENE,68,0.0,2.0,69,0.00,,,0.00,WeatherCatV1.13B119,2013-01-28 03:00:00,
2013-01-27 22:05:00,4.5,-3.4,30.40,ENE,68,0.0,2.0,69,0.00,,,0.00,WeatherCatV1.13B119,2013-01-28 03:05:00,
2013-01-27 22:10:00,4.5,-3.4,30.40,ENE,68,0.0,2.0,69,0.00,,,0.00,WeatherCatV1.13B119,2013-01-28 03:10:00,
2013-01-27 22:15:00,4.5,-3.4,30.40,ENE,68,0.0,2.0,69,0.00,,,0.00,WeatherCatV1.13B119,2013-01-28 03:15:00,
2013-01-27 22:20:00,4.0,-3.9,30.40,ENE,68,0.0,0.0,69,0.00,,,0.00,WeatherCatV1.13B119,2013-01-28 03:20:00,
2013-01-27 22:25:00,4.0,-3.9,30.40,ENE,68,0.0,0.0,69,0.00,,,0.00,WeatherCatV1.13B119,2013-01-28 03:25:00,
2013-01-27 22:30:00,4.0,-3.9,30.40,ENE,68,0.0,0.0,69,0.00,,,0.00,WeatherCatV1.13B119,2013-01-28 03:30:00,
2013-01-27 22:35:00,4.1,-4.1,30.39,ENE,68,0.0,1.0,68,0.00,,,0.00,WeatherCatV1.13B119,2013-01-28 03:35:00,
2013-01-27 22:40:00,4.1,-4.1,30.39,ENE,68,0.0,1.0,68,0.00,,,0.00,WeatherCatV1.13B119,2013-01-28 03:40:00,
2013-01-27 22:45:00,4.1,-4.1,30.39,ENE,68,0.0,1.0,68,0.00,,,0.00,WeatherCatV1.13B119,2013-01-28 03:45:00,
2013-01-27 22:50:00,4.0,-3.6,30.40,ENE,68,0.0,1.0,70,0.00,,,0.00,WeatherCatV1.13B119,2013-01-28 03:50:00,
2013-01-27 22:55:00,4.0,-3.6,30.40,ENE,68,0.0,1.0,70,0.00,,,0.00,WeatherCatV1.13B119,2013-01-28 03:55:00,
2013-01-27 23:00:00,4.0,-3.6,30.40,ENE,68,0.0,1.0,70,0.00,,,0.00,WeatherCatV1.13B119,2013-01-28 04:00:00,
2013-01-27 23:05:00,3.6,-4.0,30.39,ENE,68,0.0,0.0,70,0.00,,,0.00,WeatherCatV1.13B119,2013-01-28 04:05:00,
2013-01-27 23:10:00,3.6,-4.0,30.39,ENE,68,0.0,0.0,70,0.00,,,0.00,WeatherCatV1.13B119,2013-01-28 04:10:00,
2013-01-27 23:15:00,3.6,-4.0,30.39,ENE,68,0.0,0.0,70,0.00,,,0.00,WeatherCatV1.13B119,2013-01-28 04:15:00,
2013-01-27 23:20:00,2.9,-4.1,30.39,ENE,68,0.0,1.0,72,0.00,,,0.00,WeatherCatV1.13B119,2013-01-28 04:20:00,
2013-01-27 23:25:00,2.9,-4.1,30.39,ENE,68,0.0,1.0,72,0.00,,,0.00,WeatherCatV1.13B119,2013-01-28 04:25:00,
2013-01-27 23:30:00,2.9,-4.1,30.39,ENE,68,0.0,1.0,72,0.00,,,0.00,WeatherCatV1.13B119,2013-01-28 04:30:00,
2013-01-27 23:35:00,3.1,-4.1,30.40,ENE,68,0.0,0.0,71,0.00,,,0.00,WeatherCatV1.13B119,2013-01-28 04:35:00,
2013-01-27 23:40:00,3.1,-4.1,30.40,ENE,68,0.0,0.0,71,0.00,,,0.00,WeatherCatV1.13B119,2013-01-28 04:40:00,
2013-01-27 23:45:00,3.1,-4.1,30.40,ENE,68,0.0,0.0,71,0.00,,,0.00,WeatherCatV1.13B119,2013-01-28 04:45:00,
2013-01-27 23:50:00,2.8,-4.7,30.40,ENE,68,0.0,1.0,70,0.00,,,0.00,WeatherCatV1.13B119,2013-01-28 04:50:00,
2013-01-27 23:55:00,2.8,-4.7,30.40,ENE,68,0.0,1.0,70,0.00,,,0.00,WeatherCatV1.13B119,2013-01-28 04:55:00,